Regional Weather Roundup
Issued by NWS Northern Indiana

Home | Current Version | Previous Version | Graphics & Text | Print | Product List | Glossary On
Versions: 1 2 3 4 5 6 7 8 9 10 11 12 13 14 15 16 17 18 19 20 21 22 23 24 25 26 27 28 29 30 31 32 33 34 35 36 37 38 39 40 41 42 43 44 45 46 47 48 49 50
000
ASUS43 KIWX 281500
RWRIWX

KIWX WEATHER ROUNDUP
NATIONAL WEATHER SERVICE NORTHERN INDIANA
1100 AM EDT WED SEP 28 2016

NOTE: "FAIR" INDICATES FEW OR NO CLOUDS BELOW 12,000 FEET WITH NO
SIGNIFICANT WEATHER AND/OR OBSTRUCTIONS TO VISIBILITY.

* THESE STATIONS ARE NOT UNDER NWS QUALITY CONTROL. THEY ALSO MAY NOT
  REPORT WEATHER SUCH AS PRECIPITATION OR FOG.

INZ001>027-281600-
NORTHERN INDIANA

CITY           SKY/WX    TMP DP  RH WIND       PRES   REMARKS
GARY*          CLOUDY    55  54  94 NW14      29.87R
KNOX*          CLOUDY    54  34  47 N5        29.83R
SOUTH BEND     CLOUDY    54  49  83 N7        29.84R
ELKHART*       CLOUDY   N/A N/A N/A E8        29.84R
GOSHEN         CLOUDY    53  46  77 E6        29.84R
MONTICELLO*    CLOUDY    56  49  77 CALM      29.81R
WARSAW*        CLOUDY    55  45  67 E5        29.84R
ANGOLA*          N/A     63  54  72 S10       29.83S
FORT WAYNE     LGT RAIN  57  52  83 S5        29.85R

$$
INZ028>050-281600-
CENTRAL INDIANA

CITY           SKY/WX    TMP DP  RH WIND       PRES   REMARKS
LAFAYETTE      MOSUNNY   60  51  72 N5        29.82R
MUNCIE*        LGT RAIN  58  55  90 NE3       29.84S
INDIANAPOLIS   LGT RAIN  59  55  87 E10       29.80R

$$
MIZ043>046-050>051-056>058-064>065-071>073-077>080-281600-
SOUTHWEST LOWER MICHIGAN

CITY           SKY/WX    TMP DP  RH WIND       PRES   REMARKS
BATTLE CREEK   CLOUDY    56  47  71 NE10      29.86R
BENTON HARBOR  CLOUDY    54  50  86 VRB5      29.85R
COLDWATER*     PTSUNNY   60  49  67 SE7       29.85R
HILLSDALE*     CLOUDY    57  46  67 E7        29.86S
HOLLAND        CLOUDY    54  49  83 NE8       29.88R
GRAND RAPIDS   CLOUDY    53  48  83 NE10      29.90R
KALAMAZOO      CLOUDY    55  44  66 VRB3      29.86R
STURGIS*       CLOUDY    55  46  69 CALM      29.83S
THREE RIVERS*  CLOUDY    55  48  80 NE5       29.85S

$$
OHZ001>008-015>018-024>025-281600-
NORTHWEST OHIO

CITY           SKY/WX    TMP DP  RH WIND       PRES   REMARKS
DEFIANCE       MOSUNNY   63  47  55 SE12G22   29.85R
FINDLAY        CLOUDY    57  52  83 E7        29.84S
TOLEDO EXPRESS CLOUDY    54  51  90 E9        29.85S
TOLEDO METCALF CLOUDY    56  52  86 NE7       29.87S
LIMA           CLOUDY    57  56  96 S10       29.84R

$$
AND FOR LAKE MICHIGAN COASTAL AND OPEN LAKE BUOY OBSERVATIONS

STATION/POSITION TEMP    WIND        PRES    VSBY  WAVE
                 AIR SEA DIR/SP/G                  HT/PER
                 (F)     (DEG/KT/KT) (MB)    (MI)  (FT/S)
CALUMET HARBOR    54     320/  8/ 17 1010.6R
MICHIGAN CITY     57      20/ 19/ 20   N/A
BURNS HARBOR      59      30/ 13/ 17 1010.8R
SAINT JOSEPH      55      30/  9/ 12 1010.8
SOUTH LAKE BUOY   58 69   70/  6/  8 1010.5          1
4 MI NW BRIDGMAN  57 66   30/ 16/ 21 1010.9R         3/ 4
MICHIGAN CITY     59 66   30/ 14/ 19   N/A           3/ 4

$$
&&




USA.gov is the U.S. government's official web portal to all federal, state and local government web resources and services.